AAL681 KLAX-KABQ

Flight info

Callsign AAL681
Flight time N/A
Altitude 35000
Route DOTSS2 CNERY BLH ANGRY PXR BRRTO BRRTO1
Aircraft B77W/H-SDE1E2E3FGHIJ2J3J4J5M1RWXY/LB1D1

Departure

Time 2026-04-24 02:34
Airport Los Angeles International Airport (KLAX)

Arrival

Time N/A
Airport Albuquerque International Sunport (KABQ)
Time Latitude Longitude Altitude Speed Heading
2026-04-24 02:13 33.94675 -118.40315 126 ft 0 kts 263°
2026-04-24 02:27 33.94676 -118.40304 125 ft 2 kts 262°
2026-04-24 02:27 33.94678 -118.40287 128 ft 2 kts 262°
2026-04-24 02:27 33.94680 -118.40271 125 ft 2 kts 265°
2026-04-24 02:28 33.94681 -118.40261 125 ft 1 kts 288°
2026-04-24 02:28 33.94680 -118.40254 125 ft 1 kts 330°
2026-04-24 02:28 33.94674 -118.40250 125 ft 1 kts 347°
2026-04-24 02:28 33.94669 -118.40249 125 ft 1 kts 349°
2026-04-24 02:29 33.94664 -118.40248 125 ft 0 kts 351°
2026-04-24 02:30 33.94669 -118.40249 125 ft 3 kts 351°
2026-04-24 02:30 33.94715 -118.40256 127 ft 11 kts 353°
2026-04-24 02:30 33.94813 -118.40277 128 ft 17 kts 343°
2026-04-24 02:30 33.94901 -118.40210 127 ft 19 kts 73°
2026-04-24 02:31 33.94919 -118.40070 126 ft 16 kts 83°
2026-04-24 02:31 33.94949 -118.39943 125 ft 17 kts 45°
2026-04-24 02:31 33.95045 -118.39976 126 ft 18 kts 279°
2026-04-24 02:31 33.95036 -118.40044 127 ft 1 kts 260°
2026-04-24 02:32 33.95036 -118.40048 126 ft 1 kts 261°
2026-04-24 02:32 33.95035 -118.40051 126 ft 0 kts 261°
2026-04-24 02:32 33.95034 -118.40056 126 ft 0 kts 259°
2026-04-24 02:33 33.95026 -118.40127 130 ft 46 kts 262°
2026-04-24 02:34 33.94932 -118.41024 144 ft 167 kts 263°
2026-04-24 02:34 33.94763 -118.42667 1022 ft 220 kts 263°
2026-04-24 02:34 33.94633 -118.43952 1950 ft 248 kts 264°
2026-04-24 02:34 33.94355 -118.46822 3653 ft 266 kts 264°
2026-04-24 02:35 33.94235 -118.49085 4436 ft 275 kts 268°
2026-04-24 02:35 33.94190 -118.51390 5037 ft 276 kts 269°
2026-04-24 02:35 33.94110 -118.52928 5462 ft 279 kts 266°
2026-04-24 02:35 33.93917 -118.55261 6080 ft 282 kts 265°
2026-04-24 02:36 33.93712 -118.57670 6095 ft 293 kts 265°
2026-04-24 02:36 33.93475 -118.60054 6260 ft 279 kts 257°
2026-04-24 02:36 33.92622 -118.62135 6621 ft 282 kts 229°
2026-04-24 02:36 33.91067 -118.63555 6967 ft 282 kts 205°
2026-04-24 02:37 33.89150 -118.64144 6972 ft 288 kts 180°
2026-04-24 02:37 33.87155 -118.64002 6999 ft 290 kts 176°
2026-04-24 02:37 33.85135 -118.63827 6992 ft 290 kts 174°
2026-04-24 02:37 33.83233 -118.63134 6986 ft 287 kts 148°
2026-04-24 02:38 33.81599 -118.61775 7182 ft 285 kts 144°
2026-04-24 02:38 33.79968 -118.60422 7753 ft 288 kts 146°
2026-04-24 02:38 33.78282 -118.59041 8401 ft 298 kts 147°
2026-04-24 02:38 33.76559 -118.57636 9037 ft 300 kts 147°
2026-04-24 02:39 33.74825 -118.56225 9684 ft 302 kts 148°
2026-04-24 02:39 33.73073 -118.54802 10288 ft 309 kts 148°
2026-04-24 02:39 33.71181 -118.53265 10966 ft 346 kts 147°
2026-04-24 02:39 33.69401 -118.51108 11608 ft 386 kts 123°
2026-04-24 02:40 33.68327 -118.48089 12295 ft 403 kts 108°
2026-04-24 02:40 33.67499 -118.44837 12964 ft 409 kts 108°
2026-04-24 02:40 33.66610 -118.41578 13607 ft 414 kts 109°
2026-04-24 02:40 33.65656 -118.38298 14215 ft 418 kts 110°
2026-04-24 02:41 33.64693 -118.34993 14807 ft 421 kts 108°
2026-04-24 02:41 33.64224 -118.31528 15363 ft 421 kts 90°
2026-04-24 02:41 33.64274 -118.27953 16023 ft 434 kts 88°
2026-04-24 02:41 33.64358 -118.24307 16657 ft 439 kts 88°
2026-04-24 02:42 33.64422 -118.20634 17290 ft 443 kts 89°
2026-04-24 02:42 33.64458 -118.16925 17937 ft 447 kts 89°
2026-04-24 02:42 33.64472 -118.13176 18552 ft 451 kts 90°
2026-04-24 02:42 33.64474 -118.09406 19149 ft 454 kts 90°
2026-04-24 02:43 33.64468 -118.05599 19749 ft 458 kts 90°
2026-04-24 02:43 33.64461 -118.01755 20358 ft 462 kts 90°
2026-04-24 02:43 33.64453 -117.97881 20980 ft 467 kts 90°
2026-04-24 02:43 33.64446 -117.93968 21609 ft 471 kts 90°
2026-04-24 02:44 33.64438 -117.90018 22258 ft 475 kts 90°
2026-04-24 02:44 33.64429 -117.86036 22923 ft 479 kts 90°
2026-04-24 02:44 33.64419 -117.82071 23587 ft 484 kts 90°
2026-04-24 02:44 33.64221 -117.77978 24152 ft 488 kts 101°
2026-04-24 02:45 33.63393 -117.74085 24733 ft 489 kts 109°
2026-04-24 02:45 33.62347 -117.70187 25333 ft 493 kts 110°
2026-04-24 02:45 33.61267 -117.66261 25938 ft 498 kts 110°
2026-04-24 02:45 33.60188 -117.62234 26483 ft 504 kts 109°
2026-04-24 02:46 33.59144 -117.58189 26979 ft 511 kts 109°
2026-04-24 02:46 33.58128 -117.54141 27502 ft 516 kts 108°
2026-04-24 02:46 33.57104 -117.49997 28033 ft 521 kts 108°
2026-04-24 02:46 33.56077 -117.45820 28557 ft 525 kts 108°
2026-04-24 02:47 33.55038 -117.41608 29093 ft 528 kts 109°
2026-04-24 02:47 33.53991 -117.37384 29623 ft 530 kts 109°
2026-04-24 02:47 33.52933 -117.33138 30146 ft 533 kts 109°
2026-04-24 02:47 33.51869 -117.28876 30618 ft 534 kts 109°
2026-04-24 02:48 33.50810 -117.24609 31095 ft 535 kts 108°
2026-04-24 02:48 33.50124 -117.20220 31549 ft 539 kts 95°
2026-04-24 02:48 33.50023 -117.15732 32061 ft 539 kts 91°
2026-04-24 02:48 33.50067 -117.11243 32579 ft 538 kts 90°